GW6491 Weather Reports


Display with metric or nautical units.
time (UTC)temp
F
wind
direction
speed
MPH
gust
MPH
rain 1hr
in
rain 24hr
in
rain mn
in
humidity
%
barometer
mb
20260509173827 80 0 5.0 10.0 0.00 0.09 0.09 100 1009.0
20260509173323 80 0 4.0 8.0 0.00 0.09 0.09 100 1009.0
20260509172819 80 0 4.0 8.0 0.00 0.09 0.09 100 1009.0
20260509172316 80 0 4.0 6.0 0.00 0.09 0.09 100 1009.0
20260509171812 80 0 5.0 11.0 0.00 0.09 0.09 100 1009.0
20260509171308 80 0 5.0 10.0 0.00 0.09 0.09 100 1009.0
20260509170805 80 0 5.0 9.0 0.00 0.09 0.09 100 1009.0
20260509170300 80 0 6.0 11.0 0.00 0.09 0.09 100 1009.0
20260509165800 80 0 4.0 9.0 0.00 0.09 0.09 100 1009.0
20260509165255 80 0 4.0 6.0 0.00 0.09 0.09 100 1008.6
20260509164751 80 0 2.0 5.0 0.00 0.09 0.09 100 1008.6
20260509164247 80 0 5.0 10.0 0.00 0.09 0.09 100 1009.0
20260509163745 80 0 3.0 11.0 0.00 0.09 0.09 100 1009.0
20260509163240 80 0 6.0 13.0 0.00 0.09 0.09 100 1009.0
20260509162739 80 0 4.0 7.0 0.00 0.09 0.09 100 1009.3
20260509162233 80 0 2.0 4.0 0.00 0.09 0.09 100 1009.3
20260509161729 80 0 1.0 2.0 0.00 0.09 0.09 100 1009.3
20260509161226 80 0 1.0 4.0 0.00 0.09 0.09 100 1009.3
20260509160721 80 0 0.0 1.0 0.00 0.09 0.09 100 1009.3
20260509160217 80 0 1.0 2.0 0.00 0.09 0.09 100 1009.3
20260509155712 80 0 2.0 5.0 0.94 0.06 0.06 100 1009.3
20260509155209 80 0 1.0 4.0 0.94 0.02 0.02 100 1009.3
20260509154705 80 0 2.0 2.0 0.00 0.00 0.00 100 1009.3
20260509154202 80 0 1.0 4.0 0.00 0.00 0.00 100 1009.3
20260509153659 80 0 1.0 2.0 0.00 0.00 0.00 100 1009.3
20260509153156 80 0 2.0 3.0 0.00 0.00 0.00 100 1009.6
20260509152651 80 0 0.0 0.0 0.00 0.00 0.00 100 1009.6
20260509152149 80 0 3.0 6.0 0.00 0.00 0.00 100 1009.6
20260509151645 80 0 1.0 3.0 0.00 0.00 0.00 100 1009.6
20260509151143 80 0 2.0 7.0 0.00 0.00 0.00 100 1009.6
20260509150641 80 0 3.0 5.0 0.00 0.00 0.00 100 1009.6
20260509150139 80 0 2.0 4.0 0.00 0.00 0.00 100 1009.6
20260509145635 80 0 3.0 7.0 0.00 0.00 0.00 100 1009.6
20260509145130 80 0 0.0 1.0 0.00 0.00 0.00 100 1009.6
20260509144627 80 0 0.0 1.0 0.00 0.00 0.00 100 1009.6
20260509144124 80 0 1.0 3.0 0.00 0.00 0.00 100 1010.0
20260509143621 80 0 0.0 0.0 0.00 0.00 0.00 100 1010.0
20260509143119 80 0 0.0 0.0 0.00 0.00 0.00 100 1010.0
20260509142614 80 0 0.0 0.0 0.00 0.00 0.00 100 1010.0
20260509142110 80 0 0.0 0.0 0.00 0.00 0.00 100 1010.0
20260509141606 80 0 0.0 0.0 0.00 0.00 0.00 100 1010.3
20260509141103 80 0 0.0 0.0 0.00 0.00 0.00 100 1010.3
20260509140600 80 0 0.0 0.0 0.00 0.00 0.00 100 1010.3
20260509140058 80 0 1.0 3.0 0.00 0.00 0.00 100 1010.3
20260509135555 80 0 0.0 0.0 0.00 0.29 0.29 100 1010.3
20260509135053 80 0 0.0 0.0 0.00 0.29 0.29 100 1010.3
20260509134549 80 0 0.0 0.0 0.00 0.29 0.29 100 1010.3
20260509134047 80 0 0.0 0.0 0.00 0.29 0.29 100 1010.7
20260509133543 80 0 0.0 0.0 0.00 0.29 0.29 100 1010.7
20260509133041 80 0 0.0 0.0 0.00 0.29 0.29 100 1010.7
20260509132539 80 0 0.0 1.0 0.47 0.28 0.28 100 1010.7
20260509132037 80 0 0.0 2.0 1.42 0.24 0.24 100 1010.7
20260509131533 80 0 3.0 5.0 1.42 0.17 0.17 100 1010.7
20260509131030 80 0 2.0 4.0 0.47 0.15 0.15 100 1010.7
20260509130525 80 0 2.0 4.0 0.00 0.15 0.15 100 1011.0
20260509130023 80 0 2.0 4.0 0.00 0.15 0.15 100 1011.0
20260509125519 80 0 2.0 4.0 0.00 0.15 0.15 100 1011.0
20260509125016 80 0 1.0 2.0 0.00 0.15 0.15 100 1011.0
20260509124513 80 0 2.0 6.0 0.00 0.14 0.14 100 1011.0
20260509124010 80 0 3.0 6.0 0.00 0.14 0.14 100 1011.0
20260509123508 80 0 3.0 6.0 0.00 0.14 0.14 100 1011.0
20260509123003 80 0 3.0 7.0 0.00 0.14 0.14 100 1011.0
20260509122500 80 0 2.0 5.0 0.00 0.14 0.14 100 1011.0
20260509121957 80 0 3.0 5.0 0.00 0.14 0.14 100 1011.0
20260509121454 80 0 4.0 5.0 0.00 0.14 0.14 100 1011.0
20260509120952 80 0 2.0 4.0 0.00 0.14 0.14 100 1011.0
20260509120449 80 0 2.0 5.0 0.00 0.14 0.14 100 1011.0
20260509115947 80 0 1.0 4.0 0.00 0.14 0.14 100 1011.0
20260509115444 80 0 2.0 4.0 0.00 0.14 0.14 100 1011.0
20260509114941 80 0 0.0 3.0 0.00 0.14 0.14 100 1011.0
20260509114440 80 0 0.0 0.0 0.00 0.14 0.14 100 1011.0
20260509113939 80 0 0.0 0.0 0.00 0.14 0.14 100 1011.0
20260509113436 80 0 0.0 0.0 0.00 0.14 0.14 100 1011.0
20260509112933 80 0 0.0 0.0 0.00 0.14 0.14 100 1010.7
20260509112430 80 0 0.0 0.0 0.00 0.14 0.14 100 1010.7
20260509111927 80 0 0.0 2.0 0.00 0.14 0.14 100 1010.7
20260509111424 80 0 1.0 3.0 0.00 0.14 0.14 100 1010.7
20260509110922 80 0 3.0 4.0 0.00 0.14 0.14 100 1010.7
20260509110417 80 0 3.0 5.0 0.00 0.14 0.14 100 1010.7
20260509105916 80 0 4.0 6.0 0.00 0.14 0.14 100 1010.3
20260509105414 80 0 4.0 5.0 0.00 0.14 0.14 100 1010.3
20260509104910 80 0 0.0 0.0 0.00 0.14 0.14 100 1010.3
20260509104407 80 0 0.0 0.0 0.00 0.14 0.14 100 1010.3
20260509103905 80 0 2.0 4.0 0.00 0.14 0.14 100 1010.3
20260509103401 80 0 1.0 3.0 0.00 0.14 0.14 100 1010.0
20260509102900 80 0 1.0 3.0 0.00 0.14 0.14 100 1010.0
20260509102357 80 0 0.0 0.0 0.00 0.14 0.14 100 1010.0
20260509101852 80 0 0.0 0.0 0.00 0.14 0.14 100 1010.0
20260509101349 80 0 2.0 4.0 0.00 0.14 0.14 100 1010.0
20260509100847 80 0 1.0 3.0 0.00 0.14 0.14 100 1010.0
20260509100344 80 0 0.0 0.0 0.00 0.14 0.14 100 1010.0
20260509095841 80 0 0.0 0.0 0.00 0.14 0.14 100 1010.0
20260509095338 80 0 2.0 4.0 0.00 0.14 0.14 100 1010.0
20260509094835 80 0 3.0 4.0 0.00 0.14 0.14 100 1009.6
20260509094332 80 0 3.0 4.0 0.00 0.14 0.14 100 1009.6
20260509093829 80 0 3.0 4.0 0.00 0.14 0.14 100 1009.6
20260509093326 80 0 2.0 4.0 0.00 0.14 0.14 100 1009.6
20260509092825 80 0 0.0 0.0 0.00 0.14 0.14 100 1009.6
20260509092322 80 0 0.0 0.0 0.00 0.14 0.14 100 1009.6
20260509091820 80 0 0.0 2.0 0.00 0.14 0.14 100 1009.6
20260509091317 80 0 2.0 3.0 0.00 0.14 0.14 100 1009.6
20260509090814 80 0 0.0 3.0 0.00 0.14 0.14 100 1009.6
20260509090311 80 0 0.0 0.0 0.00 0.14 0.14 100 1009.6
20260509085808 80 0 0.0 0.0 0.00 0.14 0.14 100 1009.6
20260509085307 80 0 0.0 2.0 0.00 0.14 0.14 100 1009.6
20260509084802 80 0 2.0 5.0 0.00 0.14 0.14 100 1009.6
20260509084259 80 0 5.0 7.0 0.00 0.14 0.14 100 1009.6
20260509083757 80 0 6.0 9.0 0.00 0.14 0.14 100 1009.6
20260509083253 80 0 5.0 9.0 0.00 0.14 0.14 100 1009.6
20260509082750 80 0 3.0 5.0 0.00 0.14 0.14 100 1009.6
20260509082246 80 0 5.0 7.0 0.00 0.14 0.14 100 1009.3
20260509081744 80 0 5.0 7.0 0.00 0.14 0.14 100 1009.3
20260509081241 80 0 6.0 7.0 0.00 0.14 0.14 100 1009.3
20260509080739 80 0 4.0 6.0 0.00 0.14 0.14 100 1009.3
20260509080237 80 0 5.0 7.0 0.00 0.14 0.14 100 1009.3
20260509075734 80 0 6.0 8.0 0.00 0.14 0.14 100 1009.0
20260509075232 80 0 5.0 7.0 0.00 0.14 0.14 100 1009.0
20260509074729 80 0 6.0 9.0 0.00 0.14 0.14 100 1009.0
20260509074226 80 0 6.0 9.0 0.00 0.14 0.14 100 1009.0
20260509073722 80 0 7.0 10.0 0.00 0.14 0.14 100 1009.0
20260509073219 80 0 8.0 10.0 0.00 0.14 0.14 100 1009.0
20260509072715 80 0 7.0 11.0 0.00 0.14 0.14 100 1008.6
20260509072212 80 0 6.0 7.0 0.00 0.14 0.14 100 1008.6
20260509071709 80 0 5.0 8.0 0.00 0.14 0.14 100 1008.6
20260509071206 80 0 6.0 9.0 0.00 0.14 0.14 100 1008.6
20260509070703 80 0 6.0 8.0 0.00 0.14 0.14 100 1008.6
20260509070200 80 0 5.0 7.0 0.00 0.14 0.14 100 1008.3
20260509065655 80 0 4.0 7.0 0.00 0.14 0.14 100 1008.0
20260509065152 80 0 5.0 7.0 0.00 0.14 0.14 100 1008.0
20260509064649 80 0 4.0 6.0 0.00 0.14 0.14 100 1008.0
20260509064146 80 0 3.0 4.0 0.00 0.14 0.14 100 1008.0
20260509063643 80 0 3.0 4.0 0.00 0.14 0.14 100 1008.0
20260509063140 80 0 3.0 4.0 0.00 0.14 0.14 100 1008.0
20260509062637 80 0 4.0 5.0 0.00 0.14 0.14 100 1008.0
20260509062134 80 0 4.0 5.0 0.00 0.14 0.14 100 1008.0
20260509061630 80 0 4.0 7.0 0.00 0.14 0.14 100 1007.6
20260509061128 80 0 5.0 6.0 0.00 0.14 0.14 100 1007.6
20260509060626 80 0 5.0 7.0 0.00 0.14 0.14 100 1007.6
20260509060121 80 0 5.0 7.0 0.00 0.14 0.14 100 1007.6
20260509055617 80 0 6.0 8.0 0.00 0.14 0.14 100 1007.6
20260509055113 80 0 4.0 6.0 0.00 0.14 0.14 100 1008.0
20260509054610 80 0 5.0 8.0 0.00 0.14 0.14 100 1007.6
20260509054108 80 0 0.0 2.0 0.00 0.14 0.14 100 1007.6
20260509053607 80 0 1.0 3.0 0.00 0.14 0.14 100 1007.3
20260509053103 80 0 1.0 4.0 0.00 0.14 0.14 100 1007.6
20260509052601 80 0 2.0 5.0 0.00 0.14 0.14 100 1007.6
20260509052059 80 0 4.0 6.0 0.00 0.14 0.14 100 1007.6
20260509051556 80 0 6.0 9.0 0.00 0.14 0.14 100 1007.6
20260509051053 80 0 6.0 9.0 0.00 0.14 0.14 100 1007.6
20260509050550 80 0 1.0 6.0 0.00 0.14 0.14 100 1007.6
20260509050046 80 0 3.0 6.0 0.00 0.14 0.14 100 1007.6
20260509045544 80 0 5.0 9.0 0.00 0.14 0.14 100 1007.6
20260509045040 80 0 9.0 12.0 0.00 0.13 0.13 100 1007.6
20260509044538 80 0 7.0 12.0 0.00 0.13 0.13 100 1007.6
20260509044035 80 0 7.0 12.0 0.00 0.13 0.13 100 1007.6
20260509043531 80 0 7.0 10.0 0.00 0.13 0.13 100 1007.6
20260509043027 80 0 8.0 12.0 0.00 0.13 0.13 100 1007.6
20260509042524 80 0 8.0 12.0 0.00 0.13 0.13 100 1007.6
20260509042020 80 0 8.0 11.0 0.00 0.13 0.13 100 1007.6
20260509041517 80 0 8.0 12.0 0.00 0.13 0.13 100 1007.6
20260509041015 80 0 8.0 13.0 0.00 0.13 0.13 100 1007.6
20260509040513 80 0 9.0 12.0 0.00 0.13 0.13 100 1007.6
20260509040009 80 0 8.0 11.0 0.00 0.13 0.13 100 1007.6
20260509035506 80 0 8.0 11.0 0.00 0.13 0.13 100 1007.6
20260509035003 80 0 8.0 12.0 0.00 0.13 0.13 100 1007.6
20260509034501 80 0 9.0 12.0 0.00 0.13 0.13 100 1008.0
20260509033957 80 0 9.0 13.0 0.00 0.13 0.13 100 1008.0
20260509033454 80 0 9.0 13.0 0.00 0.13 0.13 100 1008.0
20260509032951 80 0 8.0 12.0 0.00 0.13 0.13 100 1008.0
20260509032448 80 0 10.0 13.0 0.00 0.13 0.13 100 1008.0
20260509031946 80 0 9.0 15.0 0.00 0.13 0.13 100 1008.0
20260509031443 80 0 8.0 15.0 0.00 0.13 0.13 100 1008.0
20260509030940 80 0 9.0 15.0 0.00 0.13 0.13 100 1008.0
20260509030438 80 0 10.0 17.0 0.00 0.13 0.13 100 1008.3
20260509025935 80 0 9.0 15.0 0.00 0.13 0.13 100 1008.3
20260509025431 80 0 10.0 15.0 0.00 0.13 0.13 100 1008.3
20260509024926 80 0 9.0 14.0 0.00 0.13 0.13 100 1008.3
20260509024422 80 0 11.0 15.0 0.00 0.13 0.13 100 1008.3
20260509023919 80 0 9.0 14.0 0.00 0.13 0.13 100 1008.3
20260509023417 80 0 10.0 15.0 0.00 0.13 0.13 100 1008.3
20260509022913 80 0 8.0 12.0 0.00 0.13 0.13 100 1008.6
20260509022411 80 0 8.0 13.0 0.00 0.13 0.13 100 1008.6
20260509021908 80 0 7.0 13.0 0.00 0.13 0.13 100 1008.6
20260509021405 80 0 8.0 12.0 0.00 0.13 0.13 100 1009.0
20260509020902 80 0 8.0 11.0 0.00 0.13 0.13 100 1009.0
20260509020400 80 0 7.0 11.0 0.00 0.13 0.13 100 1009.0
20260509015857 80 0 5.0 11.0 0.00 0.13 0.13 100 1009.0
20260509015355 80 0 4.0 8.0 0.00 0.13 0.13 100 1009.0
20260509014852 80 0 5.0 13.0 0.00 0.13 0.13 100 1009.3
20260509014349 80 0 10.0 15.0 0.00 0.13 0.13 100 1009.3
20260509013845 80 0 9.0 17.0 0.00 0.13 0.13 100 1009.3
20260509013342 80 0 6.0 12.0 0.00 0.13 0.13 100 1009.3
20260509012838 80 0 6.0 12.0 0.00 0.13 0.13 100 1009.6
20260509012334 80 0 7.0 14.0 0.47 0.11 0.11 100 1009.6
20260509011832 80 0 15.0 23.0 0.47 0.05 0.05 100 1009.6
20260509011329 80 0 10.0 14.0 0.00 0.05 0.05 100 1009.6
20260509010827 80 0 8.0 13.0 0.00 0.05 0.05 100 1009.6
20260509010324 80 0 10.0 13.0 0.00 0.05 0.05 100 1009.6
20260509005821 80 0 11.0 15.0 0.00 0.05 0.05 100 1009.6
20260509005319 80 0 10.0 15.0 0.00 0.05 0.05 100 1009.6
20260509004819 80 0 11.0 17.0 0.00 0.05 0.05 100 1009.6
20260509004315 80 0 11.0 18.0 0.00 0.05 0.05 100 1009.6
20260509003814 80 0 11.0 17.0 0.00 0.05 0.05 100 1009.6
20260509003312 80 0 10.0 15.0 0.00 0.05 0.05 100 1009.6
20260509002809 80 0 10.0 15.0 0.00 0.05 0.05 100 1009.6
20260509002306 80 0 12.0 18.0 0.00 0.05 0.05 100 1009.6
20260509001804 80 0 10.0 15.0 0.00 0.05 0.05 100 1009.6
20260509001259 80 0 9.0 13.0 0.00 0.05 0.05 100 1010.0
20260509000757 80 0 9.0 13.0 0.00 0.05 0.05 100 1010.0
20260509000256 80 0 10.0 15.0 0.00 0.05 0.05 100 1010.3
20260508235751 80 0 10.0 15.0 0.00 0.05 0.05 100 1010.3
20260508235247 80 0 8.0 12.0 0.00 0.05 0.05 100 1010.3
20260508234745 80 0 10.0 14.0 0.00 0.05 0.05 100 1010.3
20260508234241 80 0 10.0 14.0 0.00 0.05 0.05 100 1010.3
20260508233740 80 0 10.0 13.0 0.00 0.05 0.05 100 1010.3
20260508233238 80 0 9.0 14.0 0.00 0.05 0.05 100 1010.7
20260508232735 80 0 10.0 14.0 0.00 0.05 0.05 100 1010.7
20260508232232 80 0 11.0 16.0 0.00 0.05 0.05 100 1010.7
20260508231730 80 0 8.0 16.0 0.00 0.05 0.05 100 1010.7
20260508231226 80 0 11.0 14.0 0.00 0.05 0.05 100 1010.7
20260508230723 80 0 10.0 16.0 0.00 0.05 0.05 100 1010.7
20260508230219 80 0 11.0 16.0 0.00 0.05 0.05 100 1010.7
20260508225718 80 0 9.0 15.0 0.00 0.05 0.05 100 1010.7
20260508225214 80 0 11.0 17.0 0.00 0.05 0.05 100 1010.7
20260508224712 80 0 10.0 15.0 0.00 0.05 0.05 100 1010.7
20260508224209 80 0 11.0 15.0 0.00 0.05 0.05 100 1010.7
20260508223706 80 0 9.0 13.0 0.00 0.05 0.05 100 1010.7
20260508223203 80 0 9.0 13.0 0.00 0.05 0.05 100 1010.7
20260508222701 80 0 11.0 16.0 0.00 0.05 0.05 100 1010.7
20260508222158 80 0 9.0 14.0 0.00 0.05 0.05 100 1010.7
20260508221654 80 0 7.0 9.0 0.00 0.05 0.05 100 1010.7
20260508221150 80 0 8.0 13.0 0.00 0.05 0.05 100 1010.7
20260508220647 80 0 8.0 14.0 0.00 0.05 0.05 100 1010.7
20260508220143 80 0 11.0 15.0 0.00 0.05 0.05 100 1010.3
20260508215640 80 0 10.0 15.0 0.00 0.05 0.05 100 1010.3
20260508215137 80 0 10.0 17.0 0.00 0.05 0.05 100 1010.3
20260508214634 80 0 9.0 13.0 0.00 0.05 0.05 100 1010.3
20260508214131 80 0 9.0 16.0 0.00 0.05 0.05 100 1010.3
20260508213627 80 0 10.0 16.0 0.00 0.05 0.05 100 1010.3
20260508213123 80 0 8.0 14.0 0.00 0.05 0.05 100 1010.3
20260508212620 80 0 7.0 12.0 0.00 0.05 0.05 100 1010.3
20260508212117 80 0 7.0 13.0 0.00 0.05 0.05 100 1010.3
20260508211612 80 0 7.0 15.0 0.00 0.05 0.05 100 1010.3
20260508211109 80 0 8.0 14.0 0.00 0.05 0.05 100 1010.0
20260508210605 80 0 8.0 14.0 0.00 0.05 0.05 100 1010.0
20260508205600 80 0 9.0 16.0 0.00 0.05 0.05 100 1009.6
20260508205056 80 0 9.0 13.0 0.00 0.05 0.05 100 1009.6
20260508204552 80 0 8.0 15.0 0.00 0.05 0.05 100 1009.6
20260508204048 80 0 7.0 11.0 0.00 0.05 0.05 100 1009.6
20260508203545 80 0 9.0 17.0 0.00 0.05 0.05 100 1009.6
20260508203041 80 0 8.0 15.0 0.00 0.05 0.05 100 1009.3
20260508202537 80 0 8.0 12.0 0.00 0.05 0.05 100 1009.3
20260508202035 80 0 3.0 6.0 0.00 0.05 0.05 100 1009.3
20260508201531 80 0 3.0 7.0 0.00 0.05 0.05 100 1009.3
20260508201028 80 0 5.0 13.0 0.00 0.05 0.05 100 1009.3
20260508200525 80 0 5.0 8.0 0.00 0.05 0.05 100 1009.0
20260508200021 80 0 3.0 6.0 0.00 0.05 0.05 100 1009.0
20260508195518 80 0 9.0 14.0 0.00 0.05 0.05 100 1009.0
20260508195014 80 0 7.0 10.0 0.00 0.05 0.05 100 1009.0
20260508194511 80 0 4.0 8.0 0.00 0.05 0.05 100 1009.0
20260508194008 80 0 7.0 13.0 0.00 0.05 0.05 100 1009.0
20260508193504 80 0 6.0 10.0 0.00 0.05 0.05 100 1009.0
20260508193001 80 0 6.0 10.0 0.00 0.05 0.05 100 1008.6
20260508192458 80 0 7.0 11.0 0.00 0.05 0.05 100 1008.6
20260508191955 80 0 6.0 11.0 0.00 0.05 0.05 100 1008.6
20260508191452 80 0 7.0 12.0 0.00 0.05 0.05 100 1008.6
20260508190949 80 0 3.0 6.0 0.00 0.05 0.05 100 1008.3
20260508190446 80 0 4.0 8.0 0.00 0.05 0.05 100 1008.3
20260508185942 80 0 5.0 10.0 0.00 0.05 0.05 100 1008.6
20260508185440 80 0 4.0 7.0 0.00 0.05 0.05 100 1008.6
20260508184937 80 0 5.0 9.0 0.00 0.05 0.05 100 1008.3
20260508184434 80 0 5.0 9.0 0.00 0.05 0.05 100 1008.3
20260508183930 80 0 4.0 8.0 0.00 0.05 0.05 100 1008.3
20260508183427 80 0 5.0 8.0 0.00 0.05 0.05 100 1008.3
20260508182922 80 0 6.0 11.0 0.00 0.05 0.05 100 1008.3
20260508182420 80 0 9.0 13.0 0.00 0.05 0.05 100 1008.3
20260508181920 80 0 11.0 17.0 0.00 0.05 0.05 100 1008.3
20260508181418 80 0 6.0 9.0 0.00 0.05 0.05 100 1008.3
20260508180915 80 0 5.0 11.0 0.00 0.05 0.05 100 1008.3
20260508180412 80 0 5.0 7.0 0.00 0.05 0.05 100 1008.3
20260508175908 80 0 6.0 11.0 0.00 0.05 0.05 100 1008.3
20260508175404 80 0 5.0 9.0 0.00 0.05 0.05 100 1008.3
20260508174903 80 0 6.0 11.0 0.00 0.05 0.05 100 1008.3
20260508174359 80 0 4.0 7.0 0.00 0.05 0.05 100 1008.6
20260508173856 80 0 4.0 7.0 0.00 0.05 0.05 100 1008.6